Weather History for Rock Hill, SC

Change the Weather History Date:

Friday, November 29, 2013

  Actual Average Record
Temperature  
Mean Temperature 38 °F -  
Max Temperature 52 °F 59 °F 78 °F (1949)
Min Temperature 24 °F 38 °F 18 °F (1955)
Degree Days  
Heating Degree Days 27    
Moisture  
Dew Point 23 °F    
Average Humidity 62    
Maximum Humidity 88    
Minimum Humidity 27    
Precipitation  
Precipitation 0.00 in - - ()
Sea Level Pressure  
Sea Level Pressure 30.54 in    
Wind  
Wind Speed 3 mph (SE)    
Max Wind Speed 8 mph    
Max Gust Speed -    
Visibility 10 miles    
Events      
Averages and records for this station are not official NWS values.
T = Trace of Precipitation, MM = Missing Value Source: NWS Daily Summary

Daily Weather History Graph

Daily Weather History Graph

Search for Another Location

Airport:

Trip Planner

Search our weather history database for the weather conditions in past years. The results will help you decide how hot, cold, wet, or windy it might be!

Date:

Astronomy

Nov. 29, 2013 Rise Set
Actual Time 7:12 AM EST 5:12 PM EST
Civil Twilight 6:44 AM EST 5:40 PM EST
Nautical Twilight 6:13 AM EST 6:11 PM EST
Astronomical Twilight 5:42 AM EST 6:42 PM EST
Moon 3:23 AM EST (11/29) 2:50 PM EST (11/29)
Length of Visible Light 10h 55m
Length of Day
10h 00m
Waning Crescent, 14% of the Moon is Illuminated
Nov 29
Waning Crescent
Dec 2
New
Dec 9
First Quarter
Dec 17
Full
Dec 25
Last Quarter

Hourly Weather History & Observations

Time (EST) Temp. Windchill Dew Point Humidity Pressure Visibility Wind Dir Wind Speed Gust Speed Precip Events Conditions
12:54 AM 27.0 °F 21.6 °F 21.9 °F 81% 30.50 in 10.0 mi SSW 4.6 mph - N/A   Clear
1:54 AM 26.1 °F 21.9 °F 21.9 °F 84% 30.50 in 10.0 mi SSW 3.5 mph - N/A   Clear
2:54 AM 24.1 °F - 21.0 °F 88% 30.49 in 10.0 mi Calm Calm - N/A   Clear
3:54 AM 25.0 °F - 21.9 °F 88% 30.49 in 10.0 mi Calm Calm - N/A   Clear
4:54 AM 25.0 °F - 21.9 °F 88% 30.51 in 10.0 mi Calm Calm - N/A   Clear
5:54 AM 25.0 °F - 21.9 °F 88% 30.51 in 10.0 mi Calm Calm - N/A   Clear
6:54 AM 24.1 °F - 21.0 °F 88% 30.53 in 10.0 mi Calm Calm - N/A   Clear
7:54 AM 26.1 °F - 23.0 °F 88% 30.56 in 10.0 mi Calm Calm - N/A   Clear
8:54 AM 35.1 °F 32.2 °F 28.0 °F 76% 30.56 in 10.0 mi Variable 3.5 mph - N/A   Clear
9:54 AM 42.1 °F 39.2 °F 27.0 °F 55% 30.56 in 10.0 mi Variable 4.6 mph - N/A   Clear
10:54 AM 46.0 °F 43.9 °F 27.0 °F 47% 30.57 in 10.0 mi Variable 4.6 mph - N/A   Clear
11:54 AM 48.9 °F - 24.1 °F 38% 30.56 in 10.0 mi Variable 5.8 mph - N/A   Clear
12:54 PM 50.0 °F - 21.0 °F 32% 30.53 in 10.0 mi SE 8.1 mph - N/A   Clear
1:54 PM 52.0 °F - 19.0 °F 27% 30.52 in 10.0 mi East 5.8 mph - N/A   Clear
2:54 PM 52.0 °F - 19.9 °F 28% 30.51 in 10.0 mi Variable 4.6 mph - N/A   Clear
3:54 PM 52.0 °F - 21.0 °F 30% 30.52 in 10.0 mi Variable 4.6 mph - N/A   Clear
4:54 PM 50.0 °F - 21.9 °F 33% 30.53 in 10.0 mi Variable 3.5 mph - N/A   Clear
5:54 PM 42.1 °F - 26.1 °F 53% 30.54 in 10.0 mi Calm Calm - N/A   Clear
6:54 PM 39.0 °F - 25.0 °F 57% 30.57 in 10.0 mi Calm Calm - N/A   Clear
7:54 PM 35.1 °F - 25.0 °F 67% 30.59 in 10.0 mi Calm Calm - N/A   Clear
8:54 PM 33.1 °F - 25.0 °F 72% 30.59 in 10.0 mi Calm Calm - N/A   Clear
9:54 PM 37.0 °F - 23.0 °F 57% 30.60 in 10.0 mi Calm Calm - N/A   Clear
10:54 PM 37.9 °F 35.5 °F 24.1 °F 57% 30.60 in 10.0 mi Variable 3.5 mph - N/A   Clear
11:54 PM 37.0 °F 33.3 °F 24.1 °F 59% 30.61 in 10.0 mi East 4.6 mph - N/A   Clear